TimeMST,TemperatureF,Dew PointF,Humidity,Sea Level PressureIn,VisibilityMPH,Wind Direction,Wind SpeedMPH,Gust SpeedMPH,PrecipitationIn,Events,Conditions,WindDirDegrees,DateUTC
12:55 AM,16.0,10.0,77,30.21,10.0,WNW,6.9,-,N/A,,Clear,290,2012-11-12 07:55:00
1:55 AM,12.9,8.1,81,30.22,10.0,WNW,8.1,-,N/A,,Clear,300,2012-11-12 08:55:00
2:55 AM,12.0,7.0,80,30.23,10.0,West,6.9,-,N/A,,Clear,260,2012-11-12 09:55:00
3:55 AM,10.9,6.1,81,30.24,10.0,WSW,9.2,-,N/A,,Clear,250,2012-11-12 10:55:00
4:55 AM,10.9,7.0,84,30.26,10.0,WSW,5.8,-,N/A,,Clear,250,2012-11-12 11:55:00
5:55 AM,10.0,5.0,80,30.28,10.0,West,8.1,-,N/A,,Clear,280,2012-11-12 12:55:00
6:55 AM,12.0,6.1,77,30.29,10.0,West,10.4,-,N/A,,Clear,280,2012-11-12 13:55:00
7:55 AM,15.1,7.0,70,30.30,10.0,West,8.1,-,N/A,,Clear,280,2012-11-12 14:55:00
8:55 AM,19.0,10.0,68,30.31,10.0,West,6.9,-,N/A,,Clear,280,2012-11-12 15:55:00
9:55 AM,25.0,14.0,63,30.30,10.0,WSW,6.9,-,N/A,,Clear,250,2012-11-12 16:55:00
10:55 AM,30.9,17.1,57,30.29,10.0,West,8.1,-,N/A,,Clear,260,2012-11-12 17:55:00
11:55 AM,36.0,17.1,46,30.27,10.0,WNW,11.5,-,N/A,,Clear,290,2012-11-12 18:55:00
12:55 PM,37.0,17.1,44,30.26,10.0,WNW,11.5,-,N/A,,Clear,300,2012-11-12 19:55:00
1:55 PM,39.0,19.0,45,30.26,10.0,West,6.9,-,N/A,,Clear,280,2012-11-12 20:55:00
2:55 PM,37.9,19.9,48,30.27,10.0,West,4.6,-,N/A,,Clear,280,2012-11-12 21:55:00
3:55 PM,34.0,24.1,67,30.28,10.0,SW,4.6,-,N/A,,Clear,220,2012-11-12 22:55:00
4:55 PM,30.9,21.0,67,30.27,10.0,West,3.5,-,N/A,,Clear,280,2012-11-12 23:55:00
5:55 PM,30.0,19.0,64,30.28,10.0,WNW,3.5,-,N/A,,Clear,300,2012-11-13 00:55:00
6:55 PM,27.0,19.0,72,30.29,10.0,West,6.9,-,N/A,,Clear,270,2012-11-13 01:55:00
7:55 PM,25.0,18.0,75,30.29,10.0,Calm,Calm,-,N/A,,Clear,0,2012-11-13 02:55:00
8:55 PM,21.9,17.1,82,30.28,10.0,Calm,Calm,-,N/A,,Clear,0,2012-11-13 03:55:00
9:55 PM,21.0,15.1,78,30.28,10.0,West,4.6,-,N/A,,Clear,280,2012-11-13 04:55:00
10:55 PM,21.0,16.0,81,30.26,10.0,Calm,Calm,-,N/A,,Clear,0,2012-11-13 05:55:00
11:55 PM,19.9,16.0,85,30.26,10.0,Calm,Calm,-,N/A,,Clear,0,2012-11-13 06:55:00